Regional Weather Roundup
Issued by NWS Upton, NY

Current Version | Previous Version | Graphics & Text | Print | Product List | Glossary Off
Versions: 1 2 3 4 5 6 7 8 9 10 11 12 13 14 15 16 17 18 19 20 21 22 23 24 25 26 27 28 29 30 31 32 33 34 35 36 37 38 39 40 41 42 43 44 45 46 47 48 49 50

000
ASUS41 KOKX 200805
RWROKX

REGIONAL WEATHER ROUNDUP
NATIONAL WEATHER SERVICE NEW YORK NY
400 AM EDT SAT SEP 20 2014

NOTE: "FAIR" INDICATES FEW OR NO CLOUDS BELOW 12,000 FEET WITH NO
SIGNIFICANT WEATHER AND/OR OBSTRUCTIONS TO VISIBILITY.

NYZ071-072-176-178-NJZ106-104-200900-
NEW YORK CITY METRO AREA


CITY           SKY/WX    TMP DP  RH WIND       PRES   REMARKS
CENTRAL PARK   MOCLDY    58  50  75 CALM      30.34F
LAGUARDIA APRT PTCLDY    59  50  72 E5        30.31F
KENNEDY INTL   MOCLDY    57  49  74 NE7       30.33S
NEWARK/LIBERTY MOCLDY    64  54  69 CALM      30.32S
BRNX BOT. GARD   N/A     55  50  82 CALM      30.35R
TETERBORO      CLOUDY    60  49  66 CALM      30.31S
$$

NYZ177-179-078>081-200900-
LONG ISLAND NEW YORK

CITY           SKY/WX    TMP DP  RH WIND       PRES   REMARKS
FARMINGDALE    PTCLDY    52  47  83 N5        30.33S
ISLIP          CLEAR     51  48  89 N3        30.32R
SHIRLEY        MOCLDY    51  47  86 CALM      30.34S
WESTHAMPTON    PTCLDY    47  42  83 CALM      30.35S
MONTAUK POINT    N/A     55  48  77 E3        30.37S
$$

NYZ052-065-067-200900-
HUDSON VALLEY

CITY           SKY/WX    TMP DP  RH WIND       PRES   REMARKS
WHITE PLAINS   CLOUDY    52  48  86 CALM      30.32F
NEWBURGH       MOCLDY    52  48  87 VRB6      30.34S
MONTGOMERY     CLOUDY    50  48  93 E3        30.32F
POUGHKEEPSIE   CLOUDY    52  47  83 NW3       30.32F
ALBANY         PTCLDY    52  44  74 S10       30.29S
$$

NJZ001-105-106-008-010-013-015-019>022-104-200900-
NEW JERSEY

CITY           SKY/WX    TMP DP  RH WIND       PRES   REMARKS
NEWARK/LIBERTY MOCLDY    64  54  69 CALM      30.32S
TETERBORO      CLOUDY    60  49  66 CALM      30.31S
CALDWELL       CLOUDY    54  48  80 CALM      30.33S
MORRISTOWN     CLOUDY    54  50  87 CALM      30.33S
SOMERVILLE     CLOUDY    50  48  93 NW3       30.30F
LINDEN         CLOUDY    65  57  76 CALM      30.33S
SUSSEX         CLOUDY    51  48  89 CALM      30.31F
ANDOVER          N/A     54  51  90 CALM      30.31F
TRENTON        PTCLDY    52  50  93 NE6       30.29F
MILLVILLE      CLEAR     53  52  96 CALM      30.27F FOG
ATLANTIC CITY  CLEAR     61  57  87 E5        30.28S
WRIGHTSTOWN    CLEAR     51  51  99 CALM      30.28R
TOMS RIVER     CLEAR     52  50  93 CALM      30.30S
BELMAR         CLEAR     61  52  72 SE5       30.30S
$$

PAZ047>061-062-071-200900-
EASTERN PENNSYLVANIA

CITY           SKY/WX    TMP DP  RH WIND       PRES   REMARKS
PHILADELPHIA   CLOUDY    58  54  86 CALM      30.30S
ALLENTOWN      CLOUDY    57  52  83 CALM      30.31S
SCRANTON       CLOUDY    58  52  80 VRB3      30.27F
$$

CTZ002-004>006-009-010-012-RIZ004-006-007-MAZ004-011-015-200900-
SOUTHERN NEW ENGLAND
 IN CT

CITY           SKY/WX    TMP DP  RH WIND       PRES   REMARKS
BRADLEY INTL   CLOUDY    47  41  80 CALM      30.34F
HARTFORD       CLOUDY    50  43  77 SE8       30.35F
DANBURY        PTCLDY    47  44  90 N3        30.35F
WTRBRY/OXFORD  MOCLDY    48  41  76 CALM      30.35F
BRIDGEPORT     MOCLDY    61  52  72 SE7       30.34S
MERIDEN        MOCLDY    50  44  80 CALM      30.35F
NEW HAVEN      CLOUDY    56  47  71 N7        30.35S
CHESTER        CLOUDY    48  45  87 CALM      30.36F
GROTON         PTCLDY    48  44  86 N6        30.36S
WILLIMANTIC    CLOUDY    40  37  89 NE3       30.38F

 IN RI

CITY           SKY/WX    TMP DP  RH WIND       PRES   REMARKS
PROVIDENCE     CLEAR     43  39  86 W3        30.39S
BLOCK ISLAND   CLOUDY    54  45  71 CALM      30.37S
WESTERLY       MOCLDY    46  42  86 N3        30.37F

 IN MA

CITY           SKY/WX    TMP DP  RH WIND       PRES   REMARKS
BOSTON         CLEAR     48  39  71 S9        30.38F
WORCESTER      CLEAR     44  39  82 S9        30.35F
WESTFIELD      CLOUDY    41  39  93 CALM      30.35F
PROVINCETOWN   PTCLDY    48  37  66 S7        30.40S
NANTUCKET      MOCLDY    54  43  66 SE8       30.38S
$$

ANZ330-335-338-340-345-350-353-355-200900-
COASTAL MARINE OBSERVATIONS


STATION/POSITION TIME  SKY/WX   TEMP    WIND        PRES    VSBY  WAVE
                                AIR SEA DIR/SP/G                  HT/PER
                 (UTC)          (F)     (DEG/KT/KT) (MB)    (MI)  (FT/S)
NY HARB ENTRANCE 0800            65 70  140/ 12/ 14 1026.4          3/ 6
4S FIRE IS       0800               69                N/A           4/ 5
20S FIRE ISLAND  0800            65 67  130/ 10/ 14 1026.8          4/ 7
23SW MTP         0800                                 N/A           3/ 5
HUDSON CANYON    0800            67 72  120/ 12/ 14 1025.5          4/ 9
EXECUTION ROCKS  0800            61 70  110/  8/  8   N/A
WESTERN LI SOUND 0800            62     120/  6/  8   N/A           1
CENTRAL LI SOUND 0700            62 70  140/  8/ 12   N/A           1/ 4
EASTERN LI SOUND 0700            60 68  140/ 10/ 14   N/A
ROBBINS REEF     0800            64     120/  7/  8 1025.2
$$


>>>>>>>>>>>>>>>>>>>>>>>>>>>> KEY <<<<<<<<<<<<<<<<<<<<<<<<<<<
>                                                          <
>     SKY/WX - SKY CONDITION/PRESENT WEATHER               <
>     TMP    - TEMPERATURE IN FAHRENHEIT                   <
>     DP     - DEWPOINT IN FAHRENHEIT                      <
>     RH     - RELATIVE HUMIDITY IN PERCENT                <
>     WIND   - DIRECTION AND SPEED IN MPH                  <
>     PRES   - MEAN SEA LEVEL PRESSURE IN INCHES OF HG     <
>     WCI    - WIND CHILL INDEX                            <
>     VSB    - VISIBILITY IN MILES                         <
>     HX     - HEAT INDEX                                  <
>     TC     - TEMPERATURE IN CELSIUS                      <
>     VRB    - VARIABLE WIND DIRECTION                     <
>                                                          <
>>>>>>>>>>>>>>>>>>>>>>>>>>>> KEY <<<<<<<<<<<<<<<<<<<<<<<<<<<




USA.gov is the U.S. government's official web portal to all federal, state and local government web resources and services.